Previsão horária em Cekanow

Hoje, 25 Julho, Domingo

Tempo Temperatura Precipitação Vento Pressão Humidade
00:00 +19°C° 0 mm 3 m/s 743 mmHg 69%
01:00 +19°C° 0 mm 3 m/s 742 mmHg 72%
02:00 +19°C° 0 mm 2 m/s 742 mmHg 72%
03:00 +19°C° 0 mm 2 m/s 742 mmHg 73%
04:00 +19°C° 0 mm 2 m/s 742 mmHg 73%
05:00 +20°C° 0 mm 2 m/s 742 mmHg 68%
06:00 +23°C° 0 mm 2 m/s 742 mmHg 64%
07:00 +24°C° 0 mm 3 m/s 743 mmHg 60%
08:00 +26°C° 0 mm 3 m/s 743 mmHg 56%
09:00 +27°C° 0 mm 3 m/s 743 mmHg 51%
10:00 +29°C° 0 mm 3 m/s 743 mmHg 46%
11:00 +29°C° 0 mm 3 m/s 743 mmHg 44%
12:00 +29°C° 0 mm 3 m/s 743 mmHg 43%
13:00 +29°C° 0 mm 3 m/s 742 mmHg 41%
14:00 +28°C° 0 mm 3 m/s 743 mmHg 48%
15:00 +26°C° 0 mm 3 m/s 743 mmHg 55%
16:00 +25°C° 0 mm 4 m/s 743 mmHg 62%
17:00 +24°C° 0.1 mm 3 m/s 743 mmHg 67%
18:00 +21°C° 0.1 mm 3 m/s 742 mmHg 73%
19:00 +20°C° 0.1 mm 2 m/s 742 mmHg 78%
20:00 +20°C° 0 mm 3 m/s 742 mmHg 76%
21:00 +20°C° 0 mm 3 m/s 742 mmHg 74%
22:00 +20°C° 0 mm 4 m/s 742 mmHg 72%
23:00 +20°C° 0 mm 4 m/s 742 mmHg 73%

Amanhã, 26 Julho, Segunda-feira

Tempo Temperatura Precipitação Vento Pressão Humidade
00:00 +20°C° 0 mm 3 m/s 741 mmHg 74%
01:00 +19°C° 0 mm 3 m/s 741 mmHg 75%
02:00 +19°C° 0 mm 3 m/s 741 mmHg 77%
03:00 +18°C° 0 mm 3 m/s 741 mmHg 78%
04:00 +18°C° 0 mm 2 m/s 741 mmHg 80%
05:00 +19°C° 0 mm 2 m/s 741 mmHg 77%
06:00 +21°C° 0 mm 2 m/s 741 mmHg 73%
07:00 +23°C° 0 mm 2 m/s 741 mmHg 70%
08:00 +25°C° 0 mm 3 m/s 741 mmHg 65%
09:00 +26°C° 0 mm 3 m/s 741 mmHg 61%
10:00 +28°C° 0 mm 4 m/s 742 mmHg 56%
11:00 +28°C° 0.3 mm 4 m/s 741 mmHg 58%
12:00 +28°C° 0.3 mm 4 m/s 741 mmHg 59%
13:00 +28°C° 0.3 mm 4 m/s 741 mmHg 60%
14:00 +26°C° 1.2 mm 3 m/s 741 mmHg 69%
15:00 +24°C° 1.2 mm 3 m/s 741 mmHg 77%
16:00 +22°C° 1.2 mm 3 m/s 741 mmHg 85%
17:00 +23°C° 1.6 mm 2 m/s 741 mmHg 86%
18:00 +21°C° 1.6 mm 2 m/s 741 mmHg 87%
19:00 +22°C° 1.6 mm 1 m/s 741 mmHg 88%
20:00 +22°C° 0 mm 1 m/s 741 mmHg 88%
21:00 +21°C° 0 mm 1 m/s 741 mmHg 88%
22:00 +21°C° 0 mm 1 m/s 741 mmHg 88%
23:00 +21°C° 0 mm 1 m/s 741 mmHg 89%

Depois de amanhã, 27 Julho, Terça-feira

Tempo Temperatura Precipitação Vento Pressão Humidade
00:00 +20°C° 0 mm 1 m/s 741 mmHg 89%
01:00 +19°C° 0 mm 2 m/s 741 mmHg 89%
02:00 +19°C° 0 mm 2 m/s 741 mmHg 89%
03:00 +19°C° 0 mm 3 m/s 741 mmHg 90%
04:00 +19°C° 0 mm 3 m/s 741 mmHg 90%
05:00 +20°C° 0.1 mm 3 m/s 742 mmHg 88%
06:00 +20°C° 0.1 mm 3 m/s 742 mmHg 85%
07:00 +21°C° 0.1 mm 3 m/s 742 mmHg 83%
08:00 +22°C° 0 mm 3 m/s 742 mmHg 78%
09:00 +24°C° 0 mm 3 m/s 742 mmHg 73%
10:00 +25°C° 0 mm 4 m/s 743 mmHg 68%
11:00 +26°C° 0 mm 4 m/s 743 mmHg 64%
12:00 +27°C° 0 mm 4 m/s 743 mmHg 59%
13:00 +28°C° 0 mm 3 m/s 743 mmHg 55%
14:00 +29°C° 0.1 mm 3 m/s 743 mmHg 54%
15:00 +29°C° 0.1 mm 3 m/s 743 mmHg 54%
16:00 +29°C° 0.1 mm 3 m/s 743 mmHg 53%
17:00 +28°C° 0 mm 3 m/s 743 mmHg 57%
18:00 +27°C° 0 mm 2 m/s 743 mmHg 61%
19:00 +26°C° 0 mm 1 m/s 742 mmHg 64%
20:00 +25°C° 0 mm 1 m/s 743 mmHg 65%
21:00 +24°C° 0 mm 1 m/s 743 mmHg 65%
22:00 +23°C° 0 mm 2 m/s 743 mmHg 66%
23:00 +23°C° 0 mm 2 m/s 743 mmHg 67%

28 Julho, Quarta-feira

Tempo Temperatura Precipitação Vento Pressão Humidade
00:00 +23°C° 0 mm 2 m/s 743 mmHg 68%
01:00 +23°C° 0 mm 2 m/s 743 mmHg 69%
02:00 +21°C° 0 mm 2 m/s 743 mmHg 71%
03:00 +20°C° 0 mm 2 m/s 743 mmHg 73%
04:00 +20°C° 0 mm 2 m/s 743 mmHg 74%
05:00 +21°C° 0 mm 2 m/s 743 mmHg 70%
06:00 +24°C° 0 mm 2 m/s 743 mmHg 66%
07:00 +25°C° 0 mm 2 m/s 743 mmHg 62%
08:00 +26°C° 0 mm 2 m/s 743 mmHg 57%
09:00 +28°C° 0 mm 2 m/s 743 mmHg 52%
10:00 +29°C° 0 mm 2 m/s 743 mmHg 48%
11:00 +30°C° 0 mm 2 m/s 743 mmHg 45%
12:00 +30°C° 0 mm 1 m/s 743 mmHg 42%
13:00 +31°C° 0 mm 1 m/s 743 mmHg 39%
14:00 +31°C° 0 mm 1 m/s 742 mmHg 40%
15:00 +31°C° 0 mm 2 m/s 742 mmHg 41%
16:00 +30°C° 0 mm 2 m/s 742 mmHg 42%
17:00 +28°C° 0 mm 3 m/s 742 mmHg 49%
18:00 +26°C° 0 mm 4 m/s 742 mmHg 56%
19:00 +23°C° 0 mm 5 m/s 742 mmHg 63%
20:00 +22°C° 0.2 mm 4 m/s 743 mmHg 70%
21:00 +21°C° 0.2 mm 3 m/s 743 mmHg 77%
22:00 +19°C° 0.2 mm 3 m/s 743 mmHg 84%
23:00 +19°C° 0.2 mm 3 m/s 743 mmHg 86%

29 Julho, Quinta-feira

Tempo Temperatura Precipitação Vento Pressão Humidade
00:00 +19°C° 0.2 mm 3 m/s 744 mmHg 89%
01:00 +19°C° 0.2 mm 3 m/s 744 mmHg 92%
02:00 +19°C° 0.2 mm 3 m/s 744 mmHg 92%
03:00 +18°C° 0.2 mm 2 m/s 744 mmHg 93%
04:00 +18°C° 0.2 mm 2 m/s 744 mmHg 93%
05:00 +19°C° 0 mm 2 m/s 744 mmHg 90%
06:00 +19°C° 0 mm 3 m/s 744 mmHg 87%
07:00 +20°C° 0 mm 3 m/s 744 mmHg 83%
08:00 +21°C° 0 mm 3 m/s 745 mmHg 75%
09:00 +24°C° 0 mm 3 m/s 745 mmHg 66%
10:00 +25°C° 0 mm 3 m/s 745 mmHg 58%
11:00 +26°C° 0 mm 3 m/s 745 mmHg 54%
12:00 +27°C° 0 mm 2 m/s 744 mmHg 50%
13:00 +28°C° 0 mm 2 m/s 744 mmHg 46%
14:00 +28°C° 0 mm 2 m/s 744 mmHg 44%
15:00 +29°C° 0 mm 2 m/s 744 mmHg 43%
16:00 +29°C° 0 mm 2 m/s 743 mmHg 42%
17:00 +28°C° 0 mm 1 m/s 743 mmHg 46%
18:00 +27°C° 0 mm 1 m/s 743 mmHg 51%
19:00 +25°C° 0 mm 1 m/s 743 mmHg 56%
20:00 +24°C° 0 mm 1 m/s 743 mmHg 59%
21:00 +23°C° 0 mm 1 m/s 743 mmHg 61%
22:00 +21°C° 0 mm 2 m/s 743 mmHg 63%
23:00 +21°C° 0 mm 2 m/s 742 mmHg 66%

30 Julho, Sexta-feira

Tempo Temperatura Precipitação Vento Pressão Humidade
00:00 +21°C° 0 mm 2 m/s 742 mmHg 69%
01:00 +20°C° 0 mm 3 m/s 742 mmHg 72%
02:00 +20°C° 0 mm 3 m/s 742 mmHg 73%
03:00 +20°C° 0 mm 3 m/s 742 mmHg 74%
04:00 +19°C° 0 mm 3 m/s 742 mmHg 75%
05:00 +21°C° 0 mm 3 m/s 742 mmHg 71%
06:00 +22°C° 0 mm 4 m/s 741 mmHg 67%
07:00 +25°C° 0 mm 4 m/s 741 mmHg 62%
08:00 +27°C° 0 mm 4 m/s 741 mmHg 56%
09:00 +29°C° 0 mm 4 m/s 741 mmHg 50%
10:00 +30°C° 0 mm 4 m/s 740 mmHg 44%
11:00 +32°C° 0 mm 5 m/s 740 mmHg 41%
12:00 +33°C° 0 mm 5 m/s 740 mmHg 38%
13:00 +34°C° 0 mm 5 m/s 739 mmHg 36%
14:00 +34°C° 0 mm 5 m/s 739 mmHg 36%
15:00 +34°C° 0 mm 5 m/s 739 mmHg 37%
16:00 +34°C° 0 mm 5 m/s 739 mmHg 38%
17:00 +30°C° 0.4 mm 4 m/s 739 mmHg 52%
18:00 +27°C° 0.4 mm 4 m/s 739 mmHg 65%
19:00 +24°C° 0.4 mm 3 m/s 739 mmHg 78%
20:00 +24°C° 0.9 mm 3 m/s 739 mmHg 82%
21:00 +23°C° 0.9 mm 2 m/s 739 mmHg 85%
22:00 +21°C° 0.9 mm 2 m/s 740 mmHg 89%
23:00 +21°C° 0.3 mm 2 m/s 740 mmHg 89%
Mostrar mais

Necessitamos do seu Consentimento

A Meteoprog e os seus Fornecedores de Serviços podem armazenar e aceder a dados pessoais como cookies, identificadores do dispositivo ou outras tecnologias semelhantes existentes no seu dispositivo e processar estes dados para personalizar conteúdos e anúncios, assim como funcionalidades nas redes sociais e análise de tráfego.

  • Armazenar e/ou aceder a informações no seu dispositivo

    Os cookies, identificadores do dispositivo ou outras informações podem ser armazenados ou acedidos no seu dispositivo, para os fins acima indicados.

  • Anúncios e conteúdos personalizados, medição de anúncios e conteúdos, dados sobre o público-alvo e desenvolvimento de produtos

    Os anúncios e os conteúdos podem ser personalizados com base num perfil. Podem ser adicionados dados adicionais para uma maior personalização dos anúncios e dos conteúdos. A eficácia dos anúncios e dos conteúdos pode ser medida. Podem ser obtidas informações sobre o público que visualizou os anúncios e os conteúdos. Estes dados podem ser usados para desenvolver ou melhorar sistemas, softwares ou a experiência do utilizador.

Ao clicar em "Eu concordo”, permitirá o uso de cookies, identificadores do dispositivo e web beacons mencionados ou outras tecnologias semelhantes. As configurações do navegador do seu dispositivo podem ser alteradas.

Para certos fins, podem ser invocados interesses legítimos ao invés de consentimento. Pode ler mais informação sobre este assunto na nossa Política de Privacidade e Cookies.